Flag for Jersey Weather past 2 weeks in Saint Helier, Jersey

Now
61 °F

Passing clouds.


Feels Like: 61 °F
Forecast: 57 / 65 °F
Wind: 18 mph from Northwest

Location: Jersey Airport

Current Time: Jul 29, 2015 at 7:27:54 PM

Latest Report: Jul 29, 2015 at 6:50 PM


Visibility: N/A

Pressure: 30.04 "Hg

Humidity: 68%

Dew point: 50 °F

Location of Saint HelierLocation

Historic Weather in Saint Helier — Graph

°F

Saint Helier temperature yesterday

Maximum temperature yesterday: 61 °F (at 4:50 PM)
Minimum temperature yesterday: 54 °F (at 2:20 PM)
Average temperature yesterday: 58 °F

Past Weeks' High & Low Weather Summary

 TemperatureHumidityPressure
High77 °F (Jul 16, 4:50 PM)100% (Jul 15, 3:50 AM)30.15 "Hg (Jul 15, 3:50 AM)
Low54 °F (Jul 26, 8:50 AM)57% (Jul 19, 2:50 PM)29.59 "Hg (Jul 24, 3:50 PM)
Average62 °F85%29.93 "Hg
* Reported Jul 14 6:20 PM — Jul 29 6:20 PM, Saint Helier, Weather by CustomWeather, © 2015

Note: Actual official high and low records may vary slightly from our data, if they occured in-between our weather recording intervals... More about our weather records

Advertising

Saint Helier weather history for previous 24 hours

 ConditionsComfort  
Time TempWeatherWind HumidityBarometerVisibility
6:20 PM
Wed, Jul 29
61 °FPassing clouds.18 mph68%30.04 "HgN/A
5:50 PM61 °FPassing clouds.15 mph68%30.04 "HgN/A
5:20 PM63 °FPassing clouds.13 mph68%30.04 "HgN/A
4:50 PM63 °FPassing clouds.21 mph68%30.04 "HgN/A
4:20 PM63 °FPassing clouds.17 mph68%30.01 "HgN/A
3:50 PM63 °FPassing clouds.16 mph68%30.01 "HgN/A
3:20 PM63 °FPassing clouds.18 mph68%30.01 "HgN/A
2:50 PM63 °FPassing clouds.20 mph64%30.01 "HgN/A
2:20 PM63 °FPassing clouds.20 mph68%30.01 "HgN/A
1:50 PM63 °FScattered clouds.16 mph68%30.01 "HgN/A
1:20 PM63 °FScattered clouds.21 mph68%29.98 "HgN/A
12:50 PM63 °FPassing clouds.20 mph68%29.98 "HgN/A
12:20 PM63 °FPassing clouds.20 mph68%29.98 "HgN/A
11:50 AM63 °FPassing clouds.15 mph68%29.98 "HgN/A
11:20 AM63 °FPassing clouds.15 mph68%29.98 "HgN/A
10:50 AM63 °FPassing clouds.18 mph68%29.98 "HgN/A
10:20 AM61 °FPassing clouds.15 mph68%29.95 "HgN/A
9:50 AM61 °FPassing clouds.16 mph72%29.95 "HgN/A
9:20 AM61 °FScattered clouds.16 mph68%29.95 "HgN/A
8:20 AM59 °FSprinkles. Broken clouds.17 mph77%29.95 "HgN/A
7:50 AM59 °FPassing clouds.18 mph72%29.92 "HgN/A
7:20 AM57 °FPassing clouds.15 mph77%29.92 "HgN/A
6:50 AM57 °FPassing clouds.17 mph77%29.92 "HgN/A
6:20 AM55 °FPassing clouds.21 mph82%29.92 "HgN/A
5:50 AM55 °FPassing clouds.17 mph82%29.92 "HgN/A
5:20 AM55 °FPassing clouds.21 mph82%29.92 "HgN/A
4:50 AM55 °FPassing clouds.13 mph82%29.89 "HgN/A
4:20 AM55 °FPassing clouds.18 mph77%29.89 "HgN/A
3:50 AM55 °FPassing clouds.17 mph77%29.89 "HgN/A
9:20 PM
Tue, Jul 28
57 °FPassing clouds.16 mph77%29.89 "HgN/A
8:50 PM57 °FPassing clouds.15 mph77%29.89 "HgN/A
8:20 PM57 °FPassing clouds.17 mph77%29.89 "HgN/A
7:50 PM57 °FPassing clouds.18 mph77%29.89 "HgN/A
7:20 PM59 °FPassing clouds.17 mph77%29.89 "HgN/A
Weather by CustomWeather, © 2015

See weather overviewHow to use our weather pages